Tracking 19286 objects as of 19-Nov-2018
HD Live streaming from Space Station
objects crossing your sky now

MOLNIYA 1-S

Track MOLNIYA 1-S now!
MOLNIYA 1-S is classified as:


NORAD ID: 7392
Int'l Code: 1974-060A
Perigee: 35,754.4 km
Apogee: 35,808.5 km
Inclination: 8.2 °
Period: 1,435.5 minutes
Semi major axis: 42152 km
RCS: 1.5848 m2 (large)
Launch date: July 29, 1974
Source: Commonwealth of Independent States (former USSR) (CIS)
Launch site: TYURATAM MISSILE AND SPACE COMPLEX (TTMTR)
aabbcc
Your satellite tracking list
Your tracking list is empty




NASA's NSSDC Master Catalog

Two Line Element Set (TLE):
1  7392U 74060A   18323.04893284  .00000110  00000-0  00000+0 0  9994
2  7392   8.1579 301.1263 0006420 184.3275 358.7114  1.00315576106410
Source of the keplerian elements: AFSPC